This demonstration page uses our WeatherBlox Daily Observations layout. Learn more.

Left ArrowRight Arrow

34.74481, -87.66753

Hourly Observations for October 28, 2021

Temp ( °F °C ) Dew Point ( °F °C ) Humidity (%) Winds ( mph kmh ) Pressure ( in mb ) Visibility ( mi km ) Precip ( " mm )
12:53 am 00:53 Cloudy 62 16.7 51 10.6 67 67 SE 17 28 29.58 1002 10 16 0.01 0.25
1:45 am 01:45 Cloudy 60 15.6 52 11.1 75 75 SE 10 17 29.57 1001 10 16 0.00 0.00
1:53 am 01:53 Cloudy 60 15.6 52 11.1 75 75 SE 12 19 29.56 1001 10 16 0.00 0.00
2:53 am 02:53 Cloudy 61 16.1 52 11.1 72 72 SE 13 20 29.50 999 10 16 N/A
3:53 am 03:53 Cloudy 63 17.2 53 11.7 70 70 SE 14 22 29.45 997 10 16 0.00 0.00
4:41 am 04:41 Cloudy 62 16.7 56 13.3 80 80 SSW 13 20 29.49 999 10 16 N/A
4:49 am 04:49 Cloudy with Light Rain 63 17 55 13 77 77 W 13 20 29.48 998 4 6 0.04 1.02
4:53 am 04:53 Cloudy with Heavy Rain 62 16.7 57 13.9 84 84 WSW 9 15 29.48 998 2 3 0.08 2.03
5:12 am 05:12 Cloudy with Heavy Rain 61 16.1 58 14.4 90 90 WSW 8 13 29.50 999 2 3 0.21 5.33
5:17 am 05:17 Cloudy with Heavy Rain 61 16.1 58 14.4 90 90 WSW 6 9 29.49 998 2 2 0.26 6.60
5:30 am 05:30 Cloudy with Light Rain 61 16.1 58 14.4 90 90 N N/A 29.48 998 3 5 0.34 8.64
5:42 am 05:42 Cloudy 61 16.1 57 13.9 87 87 SE 5 7 29.48 998 10 16 0.34 8.64
5:53 am 05:53 Cloudy 61 16.1 57 13.9 87 87 ESE 3 6 29.47 998 10 16 0.34 8.64
6:30 am 06:30 Cloudy with Light Rain 61 16.1 58 14.4 90 90 SE 6 9 29.48 998 3 5 0.01 0.25
6:38 am 06:38 Cloudy with Light Rain 61 16.1 58 14.4 90 90 SE 6 9 29.48 998 4 6 0.01 0.25
6:53 am 06:53 Cloudy with Light Rain 61 16.1 58 14.4 90 90 SSE 6 9 29.46 998 5 8 0.02 0.51
7:09 am 07:09 Cloudy with Light Rain 61 16.1 58 14.4 90 90 SE 5 7 29.46 997 5 8 0.01 0.25
7:27 am 07:27 Cloudy with Heavy Rain 61 16.1 58 14.4 90 90 SE 9 15 29.48 998 3 4 0.11 2.79
7:31 am 07:31 Cloudy with Rain 61 16.1 58 14.4 90 90 SSE 8 13 29.48 998 3 5 0.12 3.05
7:41 am 07:41 Cloudy with Heavy Rain 61 16.1 58 14.4 90 90 SE 7 11 29.46 997 2 3 0.18 4.57
7:49 am 07:49 Cloudy with Rain 61 16 57 14 88 88 SE 10 17 29.48 998 3 5 0.20 5.08
7:53 am 07:53 Cloudy with Light Rain 61 16.1 58 14.4 90 90 SE 9 15 29.46 998 5 8 0.20 5.08
8:38 am 08:38 Cloudy 62 16.7 58 14.4 86 86 SSE 8 13 29.46 998 10 16 0.01 0.25
8:53 am 08:53 Cloudy 63 17.2 59 15 87 87 SSE 9 15 29.46 998 10 16 0.01 0.25
9:53 am 09:53 Cloudy 64 17.8 59 15 84 84 S 8 13 29.47 998 10 16 N/A
10:11 am 10:11 Cloudy 64 17.8 58 14.4 81 81 S 8 13 29.48 998 10 16 N/A
10:53 am 10:53 Cloudy 66 18.9 57 13.9 73 73 SW 10 17 29.47 998 10 16 N/A
11:53 am 11:53 Cloudy 64 17.8 54 12.2 70 70 SSW 14 22 29.45 997 10 16 N/A
12:53 pm 12:53 Cloudy 64 17.8 54 12.2 70 70 SW 12 19 29.44 997 10 16 N/A
1:53 pm 13:53 Mostly Cloudy 66 18.9 50 10 56 56 SSW 21 33 29.43 997 10 16 N/A
2:53 pm 14:53 Cloudy 63 17.2 48 8.9 58 58 SW 16 26 29.44 997 10 16 N/A
3:53 pm 15:53 Cloudy 62 16.7 49 9.4 62 62 SSW 10 17 29.45 997 10 16 N/A
4:53 pm 16:53 Cloudy 61 16.1 49 9.4 65 65 S 12 19 29.46 998 10 16 N/A
5:17 pm 17:17 Cloudy 60 15.6 49 9.4 67 67 SSW 13 20 29.47 998 10 16 N/A
5:53 pm 17:53 Cloudy 58 14.4 51 10.6 78 78 S 10 17 29.47 998 10 16 N/A
6:53 pm 18:53 Cloudy 58 14.4 51 10.6 78 78 S 5 7 29.47 998 10 16 N/A
7:53 pm 19:53 Cloudy 58 14.4 51 10.6 78 78 S 7 11 29.46 998 10 16 N/A
8:53 pm 20:53 Cloudy 57 13.9 51 10.6 81 81 S 9 15 29.45 997 10 16 0.00 0.00
9:21 pm 21:21 Cloudy 57 13.9 51 10.6 81 81 S 8 13 29.46 998 10 16 N/A
9:53 pm 21:53 Cloudy 57 13.9 51 10.6 81 81 S 8 13 29.44 997 10 16 0.00 0.00
10:53 pm 22:53 Cloudy 57 13.9 51 10.6 81 81 S 9 15 29.43 997 10 16 N/A
11:46 pm 23:46 Cloudy 56 13.3 50 10 81 81 WSW 10 17 29.43 997 10 16 0.01 0.25
11:53 pm 23:53 Cloudy 56 13.3 49 9.4 77 77 WSW 15 24 29.42 996 10 16 0.01 0.25

Powered by AerisWeather